Tracking 35275 objects as of 8-Sep-2026
HD Live streaming from Space Station
objects crossing your sky now

IRIDIUM 33 DEB


IRIDIUM 33 DEB is no longer on orbit


NORAD ID: 38244
Int'l Code: 1997-051ZU
Launch date: September 14, 1997
Source: United States (US)
Launch site: TYURATAM MISSILE AND SPACE COMPLEX (TTMTR)
Decay date: 2022-05-21

Note: This is SATELLITE DEBRIS
Your satellite tracking list
Your tracking list is empty




NASA's NSSDC Master Catalog

Two Line Element Set (TLE):
1 38244U 97051ZU  22114.47478656  .00195593  00000-0  53361-2 0  9992
2 38244  86.4084 182.1634 0006979 248.1443 111.9067 15.36650928656877
Source of the keplerian elements: AFSPC